Погода в Кабале

Погода в Кабале : погода сейчас, прогноз погоды и архив. Всё, что Вы хотите узнать о погоде в Кабале!

Поиск расширенной информации на нашем сайте:

Другие новости

Новости СМИ2

Главная страница сайта

Новости сайта

03.07.2017

Напоминаем, что на нашем специализированном сайте Метеоцентр.Азия вы можете получить высокодетализированные автоматические прогнозы погоды по пунктам России, СНГ и мира в авиационном формате (включающие направление и скорость ветра, видимость, явления погоды, количество и форму облачности, нижнюю и верхнюю границу облачности).


Погода в Кабале - сегодня

Время (UTC), дата Ветер
(°,м/с) 
Видим.   Явления Облачность Т
(°С)
Тd
(°С)
f(%) Тe
(°С)
Pmin
(гПа)
dP
(гПа)
Po
(мм)
O2
(г/м3)
Тmin Tmax R s Состояние
почвы
15 13.08.18 090 (В) 10 км    10/10 600 м 
[Sc]
+23.5 +14.4 57 +33  1010.3  -0.4  701  257           
18 13.08.18 090 (В) 4000 м    10/10 600 м 
[Sc]
+21.5 +6.3 37 +22  1013.4  1.5  702  261    +25.2       
21 13.08.18 090 (В) 4000 м    10/10 600 м 
[Sc]
+21.1 +14.2 65 +30  1012.3  -0.1  702  260           
00 14.08.18 360 (С) 20000 м    ясно 
+20.6 +14 66 +29  1012.5  702  260           
03 14.08.18 360 (С) 20000 м    9/9 1000 м 
[Sc]
+17.1 +15.2 89 +29  1014.7  1.1  703  263           
09 14.08.18 270 (З) 10 км    10/10 600 м 
[Sc]
+21.4 +16.6 74 +35  1014.3  0.2  704  259           
12 14.08.18 230 (ЮЗ) 10 км    10/10 600 м 
[Sc]
+23.1 +16.4 66 +36  1013.7  704  258           
15 14.08.18 270 (З) 10 км    10/10 600 м 
[Sc]
+21.7 +15.9 70 +34  1013.9  -0.3  704  259           
18 14.08.18 050 (СВ) 4000 м    10/10 600 м 
[Sc]
+21.4 +15.1 67 +32  1014.7  0.7  704  260    +23.8       
21 14.08.18 180 (Ю) 4000 м    10/10 600 м 
[Sc]
+19.3 +15.9 81 +32  1016.2  0.8  705  262           
00 15.08.18 140 (ЮВ) 4000 м    10/10 600 м 
[Sc]
+18.9 +17.3 90 +35  1016  -0.2  704  261           
03 15.08.18 320 (СЗ) 10 км    10/10 600 м 
[Sc]
+18.7 +15.7 83 +32  1015.7  -0.4  704  262           
06 15.08.18 180 (Ю) 10 км    10/10 600 м 
[Sc]
+20.1 +17.2 83 +35  1016  0.7  705  261  +18.5         
09 15.08.18 090 (В) 10 км  гроза, ливневой дождь  10/10 600 м кучево-дожд. 
[Cb calv]
+18.3 +15.9 86 +31  1016.3  -0.2  705  263           
12 15.08.18 090 (В) 10 км    10/10 600 м 
[Sc]
+22.9 +15.9 65 +35  1014.7  -0.4  704  258           
15 15.08.18 270 (З) 10 км    10/10 600 м 
[Sc]
+23.4 +17.3 69 +38  1014.3  -0.1  704  257           
21 15.08.18 180 (Ю) 4000 м    10/10 600 м 
[Sc]
+18.7 +10.5 59 +23  1010  -0.8  705  264           
00 16.08.18 090 (В) 4000 м    10/10 600 м 
[Sc]
+18.7 +16 84 +32  1016.8  0.1  705  262           
03 16.08.18 360 (С) 10 км    4/4 600 м 
[Sc]
+17.9 +12.5 71 +25  1017.1  705  264           
06 16.08.18 230 (ЮЗ) 20000 м    3/3 1000 м 
[Sc]
+22.7 +15.6 64 +34  1015.9  0.2  705  259  +17.7         
09 16.08.18 200 (Ю) 10 км    4/4 600 м 
[Sc]
+26.9 +13.3 43 +34  1014.1  -0.7  705  256           
12 16.08.18 180 (Ю) 10 км    4/4 600 м 
[Sc]
+27.7 +14 43 +36  1012.6  -1.2  704  255           
15 16.08.18 230 (ЮЗ) 10 км    4/4 600 м 
[Sc]
+27.3 +17.7 56 +43  1011.6  -0.9  703  253           
18 16.08.18 090 (В) 20000 м    3/0 средняя 
[Ac trans]
+22.5 +15.5 65 +34  1013.3  0.2  703  258    +28.5       
21 16.08.18 360 (С) 20000 м    ясно 
+20.5 +15.1 71 +31  1013.5  -0.2  703  260           
Время (UTC), дата Ветер
(°,м/с) 
Видим.   Явления Облачность Т
(°С)
Тd
(°С)
f(%) Тe
(°С)
Pmin
(гПа)
dP
(гПа)
Po
(мм)
O2
(г/м3)
Тmin Tmax R s Состояние
почвы

Для получения пояснительной информации подведите курсор к названию столбца.

ПОГОДА в Кабале - архив

Всё, что Вы хотите узнать о погоде в Кабале - удобно и подробно!

Выберите нужную дату (начиная с 1 января 2015* года) и нажмите кнопку "Найти".
Будут отображены архивные сводки погоды по пункту Кабала, начиная с указанной даты.


Отображать данные в формате CSV (для использования в таблицах Excel)


Внимание! Наш архив погоды предназначен исключительно для личного некоммерческого использования в познавательных целях. Если Вам необходимы официальные справки о состоянии погоды (для производственных, юридических, коммерческих и т.п. целей), обращайтесь в органы Росгидромета.

*Примечание: данная дата относится к архиву по метеостанциям СССР (Россия, СНГ, Балтия).
Архив по метеостанциям Зарубежной Европы и Азии (кроме Китая) хранится 10 дней, по другим регионам земного шара (Китай, Африка, Америка, Австралия, Океания) - 1 день.

Кабала - район местоположения метеостанции


Название, широта, долгота, высота метеостанции:
Кабала 41°ш. 47.9°д. 682 м над ур. моря [Азербайджан]

Дополнительная информация

В oтличие oт бoльшинства пoгoдных сайтoв мы публикуем пoдрoбную метеoинфoрмацию в детальнoм прoфессиoнальнoм фoрмате.

Характеристики температуры и влажнoсти вoздуха измеряются на высoте 2 м в тени вдали oт зданий и деревьев.
Скoрoсть ветра измеряется на высoте 10 м (на урoвне рoста челoвека скoрoсть ветра ниже в 1.5-2 раза). Если метеoстанция нахoдится в гoрoде или в лесу, тo скoрoсть ветра занижена на 2-4 м/с пo сравнению с oткрытым местoм. Скoрoсть ветра над акватoриями крупных рек и oзёр, а также на вершинах хoлмoв на 2-5 м/с выше, чем в oбычных услoвиях.
Атмoсфернoе давление в разных тoчках местнoсти мoжет значительнo oтличаться oт давления на метеoстанции, в зависимoсти oт услoвий рельефа (при пoдъёме на 10 м давление пoнижается примернo на 1 мм рт.ст.).